LUCH 5A

Last updated on Sat Dec 13 2025 00:02:34 GMT+0000 (Coordinated Universal Time)

1 37951U 11074B 25345.55164142 -.00000042 00000+0 00000+0 0 9990 2 37951 8.2772 76.6028 0005597 180.3117 189.2415 1.00274753 51172
UTC large
Height (km)
Speed (km/s)
/
Latitude / Longitude
Inclination (degrees)
Orbital Period (minutes)
Azimuth
Elevation
Range (km)
Doppler Factor

Next 0 passes for location: London (51.5072 / 0.1276)

Sorry there are no passes over London.